| time (UTC) | temp F | wind direction | speed MPH | gust MPH | rain 1hr in | rain 24hr in | rain mn in | humidity % | barometer mb |
| 20260504010053 | 74 | 275 | 0.0 | 1.0 | 0.00 | 0.00 | 0.00 | 44 | 1006.0 |
| 20260504004553 | 76 | 275 | 0.0 | 0.0 | 0.00 | 0.00 | 0.00 | 41 | 1006.0 |
| 20260504003052 | 77 | 275 | 0.0 | 1.0 | 0.00 | 0.00 | 0.00 | 40 | 1006.0 |
| 20260504001602 | 78 | 275 | 0.0 | 3.0 | 0.00 | 0.00 | 0.00 | 39 | 1006.0 |
| 20260504000055 | 78 | 275 | 0.0 | 6.0 | 0.00 | 0.00 | 0.00 | 38 | 1006.1 |
| 20260503234548 | 78 | 287 | 1.0 | 7.0 | 0.00 | 0.00 | 0.00 | 40 | 1006.3 |
| 20260503233046 | 79 | 283 | 2.0 | 8.0 | 0.00 | 0.00 | 0.00 | 38 | 1006.4 |
| 20260503231551 | 79 | 273 | 2.0 | 8.0 | 0.00 | 0.00 | 0.00 | 37 | 1006.5 |
| 20260503230048 | 79 | 243 | 4.0 | 12.0 | 0.00 | 0.00 | 0.00 | 37 | 1006.6 |
| 20260503224543 | 79 | 256 | 6.0 | 14.0 | 0.00 | 0.00 | 0.00 | 36 | 1006.7 |
| 20260503223043 | 79 | 249 | 7.0 | 14.0 | 0.00 | 0.00 | 0.00 | 37 | 1006.7 |
| 20260503221545 | 80 | 303 | 5.0 | 10.0 | 0.00 | 0.00 | 0.00 | 38 | 1006.6 |
| 20260503220040 | 79 | 278 | 6.0 | 12.0 | 0.00 | 0.00 | 0.00 | 41 | 1006.8 |
| 20260503214540 | 79 | 279 | 4.0 | 11.0 | 0.00 | 0.00 | 0.00 | 40 | 1006.9 |
| 20260503213042 | 79 | 261 | 4.0 | 11.0 | 0.00 | 0.00 | 0.00 | 40 | 1007.0 |
| 20260503211537 | 78 | 250 | 7.0 | 14.0 | 0.00 | 0.00 | 0.00 | 38 | 1007.1 |
| 20260503210034 | 78 | 323 | 8.0 | 15.0 | 0.00 | 0.00 | 0.00 | 37 | 1007.4 |
| 20260503204532 | 78 | 267 | 7.0 | 14.0 | 0.00 | 0.00 | 0.00 | 39 | 1007.6 |
| 20260503203027 | 78 | 261 | 8.0 | 15.0 | 0.00 | 0.00 | 0.00 | 38 | 1007.7 |
| 20260503201525 | 78 | 238 | 8.0 | 13.0 | 0.00 | 0.00 | 0.00 | 40 | 1007.9 |
| 20260503200022 | 78 | 268 | 8.0 | 12.0 | 0.00 | 0.00 | 0.00 | 39 | 1008.0 |
| 20260503194519 | 77 | 302 | 6.0 | 15.0 | 0.00 | 0.00 | 0.00 | 42 | 1008.2 |
| 20260503193015 | 77 | 244 | 8.0 | 17.0 | 0.00 | 0.00 | 0.00 | 41 | 1008.4 |
| 20260503191512 | 76 | 254 | 9.0 | 20.0 | 0.00 | 0.00 | 0.00 | 42 | 1008.6 |
| 20260503190024 | 75 | 278 | 8.0 | 19.0 | 0.00 | 0.00 | 0.00 | 44 | 1008.8 |
| 20260503184508 | 75 | 273 | 12.0 | 21.0 | 0.00 | 0.00 | 0.00 | 43 | 1009.0 |
| 20260503183005 | 74 | 275 | 8.0 | 18.0 | 0.00 | 0.00 | 0.00 | 44 | 1009.2 |
| 20260503181601 | 74 | 275 | 8.0 | 18.0 | 0.00 | 0.00 | 0.00 | 44 | 1009.3 |
| 20260503180100 | 73 | 277 | 10.0 | 18.0 | 0.00 | 0.00 | 0.00 | 45 | 1009.8 |
| 20260503174552 | 72 | 269 | 10.0 | 19.0 | 0.00 | 0.00 | 0.00 | 46 | 1010.0 |
| 20260503173110 | 71 | 273 | 9.0 | 18.0 | 0.00 | 0.00 | 0.00 | 46 | 1010.3 |
| 20260503171552 | 70 | 256 | 8.0 | 22.0 | 0.00 | 0.00 | 0.00 | 47 | 1010.2 |
| 20260503081533 | 45 | 267 | 0.0 | 1.0 | 0.00 | 0.00 | 0.00 | 71 | 1014.9 |
| 20260503071513 | 45 | 269 | 0.0 | 0.0 | 0.00 | 0.00 | 0.00 | 72 | 1015.4 |
| 20260503060113 | 45 | 269 | 0.0 | 0.0 | 0.00 | 0.00 | 0.00 | 70 | 1016.0 |
| 20260503054558 | 45 | 269 | 0.0 | 0.0 | 0.00 | 0.00 | 0.00 | 69 | 1016.2 |
| 20260503053058 | 45 | 269 | 0.0 | 0.0 | 0.00 | 0.00 | 0.00 | 70 | 1016.3 |
| 20260503051559 | 46 | 269 | 0.0 | 0.0 | 0.00 | 0.00 | 0.00 | 69 | 1016.2 |
| 20260503050052 | 46 | 269 | 0.0 | 0.0 | 0.00 | 0.00 | 0.00 | 69 | 1016.4 |
| 20260503044550 | 46 | 269 | 0.0 | 0.0 | 0.00 | 0.00 | 0.00 | 69 | 1016.3 |
| 20260503043051 | 47 | 269 | 0.0 | 0.0 | 0.00 | 0.00 | 0.00 | 66 | 1016.6 |
| 20260503041548 | 47 | 269 | 0.0 | 0.0 | 0.00 | 0.00 | 0.00 | 65 | 1016.8 |
| 20260503040049 | 47 | 269 | 0.0 | 0.0 | 0.00 | 0.00 | 0.00 | 64 | 1016.9 |
| 20260503034549 | 48 | 269 | 0.0 | 0.0 | 0.00 | 0.00 | 0.00 | 61 | 1017.0 |
| 20260503033048 | 48 | 269 | 0.0 | 0.0 | 0.00 | 0.00 | 0.00 | 59 | 1017.1 |
| 20260503031548 | 49 | 269 | 0.0 | 0.0 | 0.00 | 0.00 | 0.00 | 58 | 1017.2 |
| 20260503030046 | 50 | 269 | 0.0 | 0.0 | 0.00 | 0.00 | 0.00 | 57 | 1017.2 |
| 20260503024544 | 51 | 269 | 0.0 | 0.0 | 0.00 | 0.00 | 0.00 | 56 | 1017.0 |
| 20260503023045 | 52 | 269 | 0.0 | 0.0 | 0.00 | 0.00 | 0.00 | 55 | 1016.9 |
| 20260503021549 | 53 | 269 | 0.0 | 0.0 | 0.00 | 0.00 | 0.00 | 54 | 1016.9 |
| 20260503020051 | 54 | 269 | 0.0 | 1.0 | 0.00 | 0.00 | 0.00 | 54 | 1016.8 |
| 20260503014611 | 56 | 269 | 0.0 | 1.0 | 0.00 | 0.00 | 0.00 | 49 | 1016.8 |
| 20260503013043 | 57 | 269 | 0.0 | 0.0 | 0.00 | 0.00 | 0.00 | 46 | 1016.7 |
| 20260503011548 | 59 | 269 | 0.0 | 0.0 | 0.00 | 0.00 | 0.00 | 46 | 1016.6 |